User: anonymous   Login
Location: Unspecified
(0.0000°N, 0.0000°E)
Time: 11:47:05
(UTC+00:00)
Language:

USA 186 - Orbit

View from above orbital plane
View from above orbital plane
View from above satellite
View from above satellite

Ground track
Ground track

The orbit data is extracted from the following two-line orbital elements,

1 28888U 05042A   15132.80419153 0.00061000  00000-0  30340-3 0    01
2 28888  96.8751 170.9580 0137215 153.7702 206.2296 15.69210177    02
Epoch (UTC): 12 May 2015 19:18:02
Eccentricity: 0.0137215
inclination: 96.8751°
perigee height: 268 km
apogee height: 453 km
right ascension of ascending node: 170.9580°
argument of perigee: 153.7702°
revolutions per day: 15.69210177
mean anomaly at epoch: 206.2296°
orbit number at epoch: 0

The dashed part of the orbit path shows where the satellite is in the earth's shadow,  

DLR